Location: Kuppenheim
(48.8299°N, 8.2568°E)
Time: 09:18:57
(UTC+00:00)

Cosmos 1656 Rocket - Pass Details

Date: 20 June 2021
Orbit: 794 x 847 km, 71.1° (Epoch: 26 July)

Event Time Altitude Azimuth Distance (km) Brightness Sun altitude
Rises 00:17:18 0° 332° (NNW) 3,421 7.7 -16.9°
Reaches altitude 10° 00:19:46 10° 333° (NNW) 2,482 6.9 -16.8°
Maximum altitude 00:25:30 86° 63° (ENE) 855 3.7 -16.6°
Enters shadow 00:30:09 16° 152° (SSE) 2,078 5.3 -16.4°
